Погода в Синегорье

Россия / Республика Коми     65°26′53″N   51°58′40″E
темп.,
°C
ветер,
м/с
пор.,
м/с
влажн.,
%
обл.,
%
осадки,
мм/ч
давл.,
гПа
погр.,
м
29 июня, ср
ср2900:00+4ссз2106264 0.0 1024251
03:00+4ссз2107197 0.0 1024305
06:00+8ссз485899 0.0 1022636
09:00+13ссз583856 0.0 10201214
12:00+16ссз69335 0.0 10181850
15:00+16с693513 0.0 10172195
18:00+12ссв58464 0.0 10171495
21:00+9ссв48565 0.0 1018931
30 июня, чт
чт3000:00+5ссв310725 0.0 1020478
03:00+4ссв39775 0.0 1021514
06:00+7ссв46575 0.0 1021830
09:00+12ссв464018 0.0 10211185
12:00+16ссв463011 0.0 10211571
15:00+18ссв45285 0.0 10201701
18:00+18ссв35335 0.0 10191477
21:00+12с24565 0.0 102071
1 июля, пт
пт100:00+8св11675 0.0 102010
03:00+8з11676 0.0 102017
06:00+14юз23455 0.0 1018350
09:00+19з2333100 0.0 10161021
12:00+18сз5544100 0.0 1015852
15:00+11з259398 6.4 1016462
18:00+11зсз2495100 0.1 1015267
21:00+11ссз3696100 0.1 1016377
2 июля, сб
сб200:00+10ссз2598100 0.0 1016333
03:00+11ссз2697100 0.0 1016371
06:00+11с2694100 0.0 1017460
09:00+13с3484100 0.0 1017570
12:00+18с235755 0.0 10171131
15:00+22ссв344229 0.0 10161657
18:00+21ссв344581 0.0 10161357
21:00+15ссв22685 0.0 101728
3 июля, вс
вс300:00+11ссв118031 0.0 101711
03:00+11ссз11795 0.0 101710
06:00+17зсз125530 0.0 1016327
09:00+21з22435 0.0 10151132
12:00+25з24365 0.0 10131665
15:00+26зсз34345 0.0 10121927
18:00+26з34405 0.0 10101353
21:00+19з26665 0.0 1010102